Location: Newark
(44.3681°N, 100.3364°W)
Time: 01:08:37
(UTC+00:00)

deb Explorer IX - Pass Details

Date: 22 February 2020
Orbit: 547 x 1101 km, 38.8° (Epoch: 28 March)

Event Time Altitude Azimuth Distance (km) Brightness Sun altitude
Rises 21:02:59 0° 267° (W) 2,705 ? 28.3°
Reaches altitude 10° 21:05:28 10° 253° (WSW) 1,814 ? 28.0°
Maximum altitude 21:08:52 25° 197° (SSW) 1,147 ? 27.6°
Drops below altitude 10° 21:12:25 10° 142° (SE) 1,905 ? 27.2°
Sets 21:15:06 0° 129° (SE) 2,874 ? 26.9°
